sat.trackr.live / text

‹ back to catalog

SKYNET 5A

NORAD 30794 · 2007-007B

PAYLOAD ACTIVE UNKNOWN

§ Identity

Operator
Country
UK
Launch date
2007-03-11
Launch site
FRGUI
Launch vehicle
Mass (kg)
RCS (m²)
41.81

Purposes: comms

External: N2YO · Heavens-Above · Gunter

§ Orbital elements

Epoch: 2026-05-24T23:22:21.650880Z

Period
1,436.08 min
Inclination
5.2430°
Eccentricity
0.0003985
Mean motion
1.00272869 rev/d
Perigee alt
35,769.5 km
Apogee alt
35,803.1 km
Semi-major
42,164.4 km
B*
0.0000e+0
RAAN
74.0165°
Arg perigee
357.2099°
Mean anomaly
257.1644°
Rev number
7,046

§ Raw data

SKYNET 5A1 30794U 07007B   26144.97386170 -.00000274  00000+0  00000+0 0  99972 30794   5.2430  74.0165 0003985 357.2099 257.1644  1.00272869 70463

JSON: /api/v1/satellites/30794 · /tle

For live sub-satellite position, see the globe view (requires WebGL).

§ Visibility from observer

Set your observer location to see the next 7 days of passes ≥ 10°. The values pass through the URL so the page stays shareable.

No JS? Fill the form by hand. The geolocation button needs JavaScript.